Location: Newark
(41.6478°N, 9.0078°E)
Time: 23:10:59
(UTC+00:00)

UWE-3 - Pass Details

Date: 27 January 2020
Orbit: 585 x 683 km, 97.6° (Epoch: 20 February)

Event Time Altitude Azimuth Distance (km) Brightness Sun altitude
Rises 04:12:56 0° 24° (NNE) 2,883 ? -27.7°
Reaches altitude 10° 04:15:22 10° 37° (NE) 1,989 ? -27.2°
Maximum altitude 04:19:04 27° 96° (E) 1,213 ? -26.5°
Drops below altitude 10° 04:22:49 10° 154° (SSE) 2,027 ? -25.8°
Sets 04:25:19 0° 166° (SSE) 2,949 ? -25.4°
